This is the latest recevied weather packets stored in our database for station/object KD2RHT-13. If no packets are shown the sender has not sent any weather packets the latest 1 day(s).
| Time | Temp. | Humidity | Pressure | Rain* | Wind** | Luminosity | Snow |
|---|---|---|---|---|---|---|---|
| 1777961409 | 18.89° C | 63% | 1005.3 hPa | 0 mm | 1.34 m/s, 168° | 0 W/m² | - |
| 1777961106 | 18.89° C | 62% | 1005 hPa | 0 mm | 2.24 m/s, 184° | 0 W/m² | - |
| 1777960802 | 18.89° C | 62% | 1005.3 hPa | 0 mm | 1.79 m/s, 171° | 0 W/m² | - |
| 1777960498 | 18.89° C | 61% | 1005 hPa | 0 mm | 0.45 m/s, 233° | 0 W/m² | - |
| 1777960195 | 18.89° C | 59% | 1005 hPa | 0 mm | 1.79 m/s, 256° | 0 W/m² | - |
| 1777959892 | 18.89° C | 58% | 1005 hPa | 0 mm | 2.24 m/s, 224° | 0 W/m² | - |
| 1777959590 | 18.89° C | 58% | 1005 hPa | 0 mm | 0.45 m/s, 211° | 0 W/m² | - |
| 1777959287 | 18.33° C | 58% | 1005 hPa | 0 mm | 0.45 m/s, 102° | 0 W/m² | - |
| 1777958983 | 18.33° C | 59% | 1005 hPa | 0 mm | 1.34 m/s, 148° | 0 W/m² | - |
| 1777958681 | 18.33° C | 60% | 1005.3 hPa | 0 mm | 0.45 m/s, 147° | 0 W/m² | - |
| 1777958378 | 18.33° C | 60% | 1005.3 hPa | 0 mm | 0.45 m/s, 123° | 0 W/m² | - |
| 1777958075 | 17.78° C | 60% | 1005.6 hPa | 0 mm | 0 m/s | 0 W/m² | - |
| 1777957773 | 17.78° C | 61% | 1005.3 hPa | 0 mm | 0.45 m/s, 107° | 0 W/m² | - |
| 1777957471 | 18.33° C | 61% | 1005.3 hPa | 0 mm | 0 m/s | 0 W/m² | - |
| 1777957168 | 18.33° C | 61% | 1005.3 hPa | 0 mm | 0.45 m/s, 158° | 0 W/m² | - |
| 1777956864 | 18.33° C | 61% | 1005.3 hPa | 0 mm | 1.34 m/s, 144° | 0 W/m² | - |
| 1777956561 | 18.33° C | 57% | 1005.6 hPa | 0 mm | 0.45 m/s, 134° | 0 W/m² | - |
| 1777956258 | 17.78° C | 57% | 1005.6 hPa | 0 mm | 0.89 m/s, 176° | 0 W/m² | - |
| 1777955955 | 17.22° C | 58% | 1005.3 hPa | 0 mm | 1.79 m/s, 197° | 0 W/m² | - |
| 1777955651 | 16.67° C | 60% | 1005.3 hPa | 0 mm | 0 m/s | 0 W/m² | - |
| 1777955348 | 16.11° C | 60% | 1005.3 hPa | 0 mm | 0 m/s | 0 W/m² | - |
| 1777955044 | 16.11° C | 61% | 1005.3 hPa | 0 mm | 0 m/s | 0 W/m² | - |
| 1777954741 | 16.67° C | 60% | 1005.3 hPa | 0 mm | 0.45 m/s, 159° | 0 W/m² | - |
| 1777954438 | 17.22° C | 58% | 1005.3 hPa | 0 mm | 0 m/s | 0 W/m² | - |
| 1777954135 | 17.22° C | 58% | 1005.3 hPa | 0 mm | 0 m/s | 0 W/m² | - |
* Rain latest hour (hover to see other rain measurements)
** Current wind speed in m/s (hover to see current wind gust speed)